Back to catalog

STARLINK-36665

AliveCommunicationsVLEO
NORAD 68968·PAYLOAD·🇺🇸 United States

Launched May 1, 2026 from Cape Canaveral Space Force Station

Loading…

Next Passes (next 24 hours)

TLE

FreshSource: CelesTrak SupGP

Epoch: Sep 14, 2026, 22:50 UTC

1 68968C 26099T   26257.95187500  .00017195  00000+0  50803-3 0  2578
2 68968  53.1569 101.5949 0001321  84.4390 302.4511 15.34381959    17

Track STARLINK-36665 in real time with AllMySat

Download on the App Store